SYRACUSE 3A

Last updated on Jan. 19, 2020, 4:37 a.m. UTC

1 28885U 05041B   20018.74997301  .00000124  00000-0  00000+0 0  9998
2 28885   0.0490  98.6447 0002860 196.2941 139.6404  1.00272672 52250
UTC
Height (km)
Latitude
Longitude
Inclination
Orbital Period
UTC large
Height (km)
Speed (km/s)
/
Latitude / Longitude
Inclination (degrees)
Orbital Period (minutes)
Azimuth
Elevation
Range (km)
Doppler Factor
iOS Compass Heading
iOS Angle

Next 30 passes for location: Hong Kong

Rise time Rise Azimuth (degrees) Set time Set Azimuth (degrees) Duration Max altitude (degrees)

No matching passes for this satellites